Time,TemperatureF,DewpointF,PressureIn,WindDirection,WindDirectionDegrees,WindSpeedMPH,WindSpeedGustMPH,Humidity,HourlyPrecipIn,Conditions,Clouds,dailyrainin,SolarRadiationWatts/m^2,SoftwareType,DateUTC
2013-03-19 00:12:00,36.6,33.0,29.89,SW,227,5.0,13.0,87,0.00,,,0.48,0,weatherlink.com 1.10,2013-03-19 04:12:00,
2013-03-19 00:27:00,36.6,33.0,29.90,West,266,10.0,12.0,87,0.00,,,0.48,0,weatherlink.com 1.10,2013-03-19 04:27:00,
2013-03-19 00:42:00,36.2,33.0,29.90,West,267,1.0,12.0,87,0.00,,,0.48,0,weatherlink.com 1.10,2013-03-19 04:42:00,
2013-03-19 00:57:00,35.6,32.0,29.90,WNW,298,1.0,14.0,87,0.00,,,0.48,0,weatherlink.com 1.10,2013-03-19 04:57:00,
2013-03-19 01:12:00,34.9,31.0,29.92,WSW,248,9.0,14.0,85,0.00,,,0.48,0,weatherlink.com 1.10,2013-03-19 05:12:00,
2013-03-19 01:42:00,32.9,26.0,29.93,WSW,258,6.0,14.0,75,0.00,,,0.48,0,weatherlink.com 1.10,2013-03-19 05:42:00,
2013-03-19 01:57:00,31.9,25.0,29.93,WNW,288,4.0,14.0,75,0.00,,,0.48,0,weatherlink.com 1.10,2013-03-19 05:57:00,
2013-03-19 02:12:00,31.4,25.0,29.95,NW,325,4.0,13.0,76,0.00,,,0.48,0,weatherlink.com 1.10,2013-03-19 06:12:00,
2013-03-19 02:27:00,30.9,25.0,29.95,WSW,257,2.0,13.0,77,0.00,,,0.48,0,weatherlink.com 1.10,2013-03-19 06:27:00,
2013-03-19 02:42:00,30.4,24.0,29.96,West,262,7.0,11.0,77,0.00,,,0.48,0,weatherlink.com 1.10,2013-03-19 06:42:00,
2013-03-19 02:57:00,29.7,23.0,29.97,NW,304,4.0,11.0,77,0.00,,,0.48,0,weatherlink.com 1.10,2013-03-19 06:57:00,
2013-03-19 03:12:00,29.2,23.0,29.98,WNW,298,7.0,14.0,76,0.00,,,0.48,0,weatherlink.com 1.10,2013-03-19 07:12:00,
2013-03-19 03:27:00,28.9,23.0,29.98,WSW,254,2.0,15.0,77,0.00,,,0.48,0,weatherlink.com 1.10,2013-03-19 07:27:00,
2013-03-19 03:42:00,28.4,21.0,29.98,WNW,294,4.0,15.0,74,0.00,,,0.00,0,weatherlink.com 1.10,2013-03-19 07:42:00,
2013-03-19 03:57:00,27.8,20.0,29.98,West,277,5.0,12.0,73,0.00,,,0.00,0,weatherlink.com 1.10,2013-03-19 07:57:00,
2013-03-19 04:13:00,27.5,20.0,29.98,WNW,298,4.0,12.0,74,0.00,,,0.00,0,weatherlink.com 1.10,2013-03-19 08:13:00,
2013-03-19 04:28:00,26.9,19.0,29.98,West,275,6.0,14.0,72,0.00,,,0.00,0,weatherlink.com 1.10,2013-03-19 08:28:00,
2013-03-19 04:43:00,26.5,19.0,29.99,West,271,2.0,11.0,73,0.00,,,0.00,0,weatherlink.com 1.10,2013-03-19 08:43:00,
2013-03-19 04:58:00,26.1,19.0,29.99,West,273,4.0,9.0,75,0.00,,,0.00,0,weatherlink.com 1.10,2013-03-19 08:58:00,
2013-03-19 05:13:00,26.0,19.0,30.00,SW,221,5.0,10.0,76,0.00,,,0.00,0,weatherlink.com 1.10,2013-03-19 09:13:00,
2013-03-19 05:28:00,26.1,18.0,30.01,WSW,252,6.0,14.0,72,0.00,,,0.00,0,weatherlink.com 1.10,2013-03-19 09:28:00,
2013-03-19 05:43:00,26.1,18.0,30.01,WSW,247,7.0,13.0,71,0.00,,,0.00,0,weatherlink.com 1.10,2013-03-19 09:43:00,
2013-03-19 05:58:00,25.8,18.0,30.01,West,264,3.0,13.0,72,0.00,,,0.00,0,weatherlink.com 1.10,2013-03-19 09:58:00,
2013-03-19 06:13:00,25.6,18.0,30.01,WSW,238,8.0,8.0,74,0.00,,,0.00,0,weatherlink.com 1.10,2013-03-19 10:13:00,
2013-03-19 06:28:00,25.6,18.0,30.00,WSW,245,6.0,13.0,74,0.00,,,0.00,0,weatherlink.com 1.10,2013-03-19 10:28:00,
2013-03-19 06:43:00,25.5,19.0,30.00,SW,234,3.0,11.0,76,0.00,,,0.00,0,weatherlink.com 1.10,2013-03-19 10:43:00,
2013-03-19 06:58:00,25.5,19.0,30.01,WSW,244,8.0,10.0,77,0.00,,,0.00,0,weatherlink.com 1.10,2013-03-19 10:58:00,
2013-03-19 07:13:00,25.4,19.0,30.01,WSW,238,4.0,8.0,78,0.00,,,0.00,0,weatherlink.com 1.10,2013-03-19 11:13:00,
2013-03-19 07:28:00,25.7,19.0,30.01,SSW,202,6.0,13.0,77,0.00,,,0.00,0,weatherlink.com 1.10,2013-03-19 11:28:00,
2013-03-19 07:43:00,25.8,19.0,30.02,WSW,254,6.0,11.0,76,0.00,,,0.00,0,weatherlink.com 1.10,2013-03-19 11:43:00,
2013-03-19 07:58:00,25.8,19.0,30.03,SW,234,9.0,12.0,76,0.00,,,0.00,9,weatherlink.com 1.10,2013-03-19 11:58:00,
2013-03-19 08:13:00,25.7,19.0,30.03,SW,236,5.0,11.0,76,0.00,,,0.00,18,weatherlink.com 1.10,2013-03-19 12:13:00,
2013-03-19 08:28:00,26.0,19.0,30.04,SW,224,6.0,15.0,75,0.00,,,0.00,28,weatherlink.com 1.10,2013-03-19 12:28:00,
2013-03-19 08:43:00,26.3,19.0,30.03,SW,229,8.0,13.0,74,0.00,,,0.00,39,weatherlink.com 1.10,2013-03-19 12:43:00,
2013-03-19 08:58:00,26.9,19.0,30.03,West,276,7.0,15.0,73,0.00,,,0.00,42,weatherlink.com 1.10,2013-03-19 12:58:00,
2013-03-19 09:13:00,27.5,20.0,30.04,SW,225,4.0,12.0,72,0.00,,,0.00,65,weatherlink.com 1.10,2013-03-19 13:13:00,
2013-03-19 09:28:00,28.1,19.0,30.05,WSW,239,6.0,20.0,68,0.00,,,0.00,190,weatherlink.com 1.10,2013-03-19 13:28:00,
2013-03-19 09:43:00,28.9,20.0,30.05,SW,232,7.0,19.0,68,0.00,,,0.00,371,weatherlink.com 1.10,2013-03-19 13:43:00,
2013-03-19 09:58:00,29.3,20.0,30.06,SW,219,12.0,23.0,67,0.00,,,0.00,432,weatherlink.com 1.10,2013-03-19 13:58:00,
2013-03-19 10:13:00,29.8,20.0,30.07,WSW,250,10.0,18.0,66,0.00,,,0.00,492,weatherlink.com 1.10,2013-03-19 14:13:00,
2013-03-19 10:29:00,30.2,20.0,30.06,West,265,3.0,18.0,66,0.00,,,0.00,540,weatherlink.com 1.10,2013-03-19 14:29:00,
2013-03-19 10:44:00,30.7,19.0,30.07,SW,235,13.0,18.0,63,0.00,,,0.00,589,weatherlink.com 1.10,2013-03-19 14:44:00,
2013-03-19 10:59:00,31.0,20.0,30.08,SW,215,6.0,19.0,64,0.00,,,0.00,652,weatherlink.com 1.10,2013-03-19 14:59:00,
2013-03-19 11:14:00,31.2,17.0,30.08,West,265,9.0,18.0,56,0.00,,,0.00,673,weatherlink.com 1.10,2013-03-19 15:14:00,
2013-03-19 11:29:00,31.9,18.0,30.09,WSW,246,5.0,23.0,58,0.00,,,0.00,717,weatherlink.com 1.10,2013-03-19 15:29:00,
2013-03-19 11:44:00,31.6,17.0,30.10,West,259,10.0,24.0,56,0.00,,,0.00,752,weatherlink.com 1.10,2013-03-19 15:44:00,
2013-03-19 11:59:00,32.5,19.0,30.10,WSW,256,8.0,20.0,58,0.00,,,0.00,786,weatherlink.com 1.10,2013-03-19 15:59:00,
2013-03-19 12:14:00,33.0,20.0,30.11,WSW,254,9.0,21.0,59,0.00,,,0.00,819,weatherlink.com 1.10,2013-03-19 16:14:00,
2013-03-19 12:29:00,32.9,19.0,30.12,WSW,252,9.0,24.0,58,0.00,,,0.00,846,weatherlink.com 1.10,2013-03-19 16:29:00,
2013-03-19 12:44:00,33.4,19.0,30.12,West,275,6.0,21.0,57,0.00,,,0.00,865,weatherlink.com 1.10,2013-03-19 16:44:00,
2013-03-19 12:59:00,34.1,21.0,30.12,SW,224,9.0,22.0,58,0.00,,,0.00,877,weatherlink.com 1.10,2013-03-19 16:59:00,
2013-03-19 13:14:00,34.3,20.0,30.13,SSW,203,9.0,21.0,56,0.00,,,0.00,893,weatherlink.com 1.10,2013-03-19 17:14:00,
2013-03-19 13:29:00,35.0,21.0,30.13,WSW,237,9.0,20.0,57,0.00,,,0.00,895,weatherlink.com 1.10,2013-03-19 17:29:00,
2013-03-19 13:44:00,35.8,21.0,30.13,WSW,246,11.0,18.0,55,0.00,,,0.00,905,weatherlink.com 1.10,2013-03-19 17:44:00,
2013-03-19 13:59:00,35.2,19.0,30.14,WSW,239,14.0,25.0,52,0.00,,,0.00,905,weatherlink.com 1.10,2013-03-19 17:59:00,
2013-03-19 14:14:00,36.1,20.0,30.14,SSW,209,6.0,25.0,52,0.00,,,0.00,902,weatherlink.com 1.10,2013-03-19 18:14:00,
2013-03-19 14:29:00,37.2,20.0,30.14,SSW,204,1.0,23.0,51,0.00,,,0.00,896,weatherlink.com 1.10,2013-03-19 18:29:00,
2013-03-19 14:44:00,38.1,20.0,30.14,NW,315,10.0,19.0,48,0.00,,,0.00,888,weatherlink.com 1.10,2013-03-19 18:44:00,
2013-03-19 14:59:00,37.7,20.0,30.14,NW,308,2.0,20.0,49,0.00,,,0.00,865,weatherlink.com 1.10,2013-03-19 18:59:00,
2013-03-19 15:14:00,38.4,20.0,30.14,WSW,246,13.0,21.0,47,0.00,,,0.00,844,weatherlink.com 1.10,2013-03-19 19:14:00,
2013-03-19 15:29:00,39.2,21.0,30.14,West,273,5.0,20.0,48,0.00,,,0.00,821,weatherlink.com 1.10,2013-03-19 19:29:00,
2013-03-19 15:44:00,39.4,19.0,30.14,SW,230,8.0,19.0,44,0.00,,,0.00,793,weatherlink.com 1.10,2013-03-19 19:44:00,
2013-03-19 15:59:00,40.2,21.0,30.14,SSW,207,7.0,15.0,47,0.00,,,0.00,758,weatherlink.com 1.10,2013-03-19 19:59:00,
2013-03-19 16:14:00,40.5,21.0,30.14,NW,311,10.0,19.0,45,0.00,,,0.00,721,weatherlink.com 1.10,2013-03-19 20:14:00,
2013-03-19 16:30:00,41.0,20.0,30.14,SW,221,7.0,15.0,44,0.00,,,0.00,679,weatherlink.com 1.10,2013-03-19 20:30:00,
2013-03-19 16:45:00,40.9,19.0,30.14,SW,234,4.0,18.0,42,0.00,,,0.00,636,weatherlink.com 1.10,2013-03-19 20:45:00,
2013-03-19 17:00:00,41.2,20.0,30.14,WSW,258,6.0,15.0,42,0.00,,,0.00,617,weatherlink.com 1.10,2013-03-19 21:00:00,
2013-03-19 17:15:00,41.4,20.0,30.14,WSW,250,8.0,19.0,43,0.00,,,0.00,466,weatherlink.com 1.10,2013-03-19 21:15:00,
2013-03-19 17:30:00,41.1,19.0,30.14,WSW,246,7.0,15.0,42,0.00,,,0.00,506,weatherlink.com 1.10,2013-03-19 21:30:00,
2013-03-19 17:45:00,41.3,19.0,30.14,WNW,297,3.0,11.0,41,0.00,,,0.00,452,weatherlink.com 1.10,2013-03-19 21:45:00,
2013-03-19 18:00:00,41.3,20.0,30.14,WNW,286,4.0,14.0,43,0.00,,,0.00,381,weatherlink.com 1.10,2013-03-19 22:00:00,
2013-03-19 18:15:00,40.6,19.0,30.15,WNW,297,6.0,20.0,42,0.00,,,0.00,258,weatherlink.com 1.10,2013-03-19 22:15:00,
2013-03-19 18:30:00,40.3,18.0,30.15,SSW,201,7.0,10.0,41,0.00,,,0.00,142,weatherlink.com 1.10,2013-03-19 22:30:00,
2013-03-19 19:00:00,39.2,20.0,30.15,WSW,258,5.0,12.0,46,0.00,,,0.00,74,weatherlink.com 1.10,2013-03-19 23:00:00,
2013-03-19 19:15:00,38.8,20.0,30.16,WSW,238,7.0,10.0,47,0.00,,,0.00,58,weatherlink.com 1.10,2013-03-19 23:15:00,
2013-03-19 19:30:00,38.5,20.0,30.16,SSW,204,5.0,9.0,48,0.00,,,0.00,37,weatherlink.com 1.10,2013-03-19 23:30:00,
2013-03-19 19:45:00,38.0,21.0,30.16,WSW,238,6.0,10.0,51,0.00,,,0.00,14,weatherlink.com 1.10,2013-03-19 23:45:00,
2013-03-19 20:00:00,37.5,21.0,30.16,WSW,237,6.0,9.0,51,0.00,,,0.00,0,weatherlink.com 1.10,2013-03-20 00:00:00,
2013-03-19 20:15:00,36.8,21.0,30.16,SW,234,3.0,8.0,53,0.00,,,0.00,0,weatherlink.com 1.10,2013-03-20 00:15:00,
2013-03-19 20:30:00,36.5,21.0,30.16,SW,221,7.0,9.0,54,0.00,,,0.00,0,weatherlink.com 1.10,2013-03-20 00:30:00,
2013-03-19 20:45:00,36.3,21.0,30.16,SW,218,5.0,10.0,54,0.00,,,0.00,0,weatherlink.com 1.10,2013-03-20 00:45:00,
2013-03-19 21:00:00,36.1,21.0,30.16,SSW,213,4.0,8.0,55,0.00,,,0.00,0,weatherlink.com 1.10,2013-03-20 01:00:00,
2013-03-19 21:15:00,35.7,21.0,30.17,WSW,240,5.0,7.0,55,0.00,,,0.00,0,weatherlink.com 1.10,2013-03-20 01:15:00,
2013-03-19 21:30:00,35.3,21.0,30.17,WSW,239,3.0,9.0,56,0.00,,,0.00,0,weatherlink.com 1.10,2013-03-20 01:30:00,
2013-03-19 21:45:00,35.0,21.0,30.17,WSW,246,2.0,7.0,57,0.00,,,0.00,0,weatherlink.com 1.10,2013-03-20 01:45:00,
2013-03-19 22:00:00,34.8,21.0,30.17,SW,232,1.0,7.0,57,0.00,,,0.00,0,weatherlink.com 1.10,2013-03-20 02:00:00,
2013-03-19 22:15:00,34.4,20.0,30.17,SSW,206,2.0,8.0,57,0.00,,,0.00,0,weatherlink.com 1.10,2013-03-20 02:15:00,
2013-03-19 22:30:00,34.1,21.0,30.17,SSW,205,1.0,7.0,58,0.00,,,0.00,0,weatherlink.com 1.10,2013-03-20 02:30:00,
2013-03-19 22:45:00,33.8,20.0,30.17,SW,216,4.0,7.0,58,0.00,,,0.00,0,weatherlink.com 1.10,2013-03-20 02:45:00,
2013-03-19 23:00:00,33.4,20.0,30.17,SW,232,1.0,6.0,58,0.00,,,0.00,0,weatherlink.com 1.10,2013-03-20 03:00:00,
2013-03-19 23:15:00,33.0,20.0,30.17,SW,226,3.0,5.0,59,0.00,,,0.00,0,weatherlink.com 1.10,2013-03-20 03:15:00,
2013-03-19 23:30:00,33.0,20.0,30.17,SW,235,2.0,6.0,60,0.00,,,0.00,0,weatherlink.com 1.10,2013-03-20 03:30:00,
2013-03-19 23:45:00,32.8,20.0,30.17,SW,234,2.0,6.0,60,0.00,,,0.00,0,weatherlink.com 1.10,2013-03-20 03:45:00,